AFA88 RCFN-RCKH

Flight info

Callsign AFA88
Flight time 0h 39m
Altitude 8000
Route GAMMA V14 LATIS B591 HCN N0155A070
Aircraft DA42/L-SBDGRY/S

Departure

Time 2026-05-08 12:26
Airport Taitung Airport (RCFN)

Arrival

Time 2026-05-08 13:05
Airport Kaohsiung International Airport (RCKH)
Time Latitude Longitude Altitude Speed Heading
2026-05-08 12:12 22.75947 121.10316 141 ft 0 kts 41°
2026-05-08 12:20 22.75955 121.10327 141 ft 6 kts 77°
2026-05-08 12:20 22.75932 121.10363 140 ft 9 kts 136°
2026-05-08 12:20 22.75874 121.10338 138 ft 9 kts 219°
2026-05-08 12:21 22.75815 121.10288 138 ft 12 kts 218°
2026-05-08 12:21 22.75744 121.10227 139 ft 14 kts 218°
2026-05-08 12:21 22.75670 121.10163 139 ft 13 kts 218°
2026-05-08 12:21 22.75599 121.10102 140 ft 16 kts 218°
2026-05-08 12:22 22.75492 121.10009 140 ft 23 kts 218°
2026-05-08 12:22 22.75380 121.09913 141 ft 19 kts 218°
2026-05-08 12:22 22.75285 121.09832 142 ft 16 kts 218°
2026-05-08 12:22 22.75210 121.09808 143 ft 8 kts 129°
2026-05-08 12:23 22.75207 121.09811 143 ft 0 kts 129°
2026-05-08 12:24 22.75177 121.09851 142 ft 11 kts 127°
2026-05-08 12:24 22.75181 121.09898 142 ft 0 kts 38°
2026-05-08 12:24 22.75182 121.09898 142 ft 4 kts 37°
2026-05-08 12:25 22.75241 121.09948 142 ft 26 kts 38°
2026-05-08 12:25 22.75537 121.10205 154 ft 76 kts 40°
2026-05-08 12:25 22.75917 121.10562 419 ft 72 kts 37°
2026-05-08 12:25 22.76317 121.10961 571 ft 84 kts 45°
2026-05-08 12:26 22.76766 121.11430 736 ft 91 kts 55°
2026-05-08 12:26 22.76861 121.12099 962 ft 94 kts 110°
2026-05-08 12:26 22.76429 121.12636 1203 ft 97 kts 146°
2026-05-08 12:26 22.75787 121.12802 1496 ft 96 kts 185°
2026-05-08 12:27 22.75178 121.12590 1745 ft 90 kts 196°
2026-05-08 12:27 22.74571 121.12353 1772 ft 96 kts 186°
2026-05-08 12:27 22.73925 121.12192 1919 ft 94 kts 185°
2026-05-08 12:27 22.73275 121.12004 2150 ft 97 kts 194°
2026-05-08 12:28 22.72605 121.11792 2367 ft 108 kts 194°
2026-05-08 12:28 22.71846 121.11550 2544 ft 116 kts 194°
2026-05-08 12:28 22.71061 121.11306 2816 ft 118 kts 195°
2026-05-08 12:28 22.70264 121.11061 3097 ft 120 kts 195°
2026-05-08 12:29 22.69456 121.10816 3375 ft 121 kts 196°
2026-05-08 12:29 22.68633 121.10805 3652 ft 119 kts 161°
2026-05-08 12:29 22.67887 121.11196 3893 ft 118 kts 151°
2026-05-08 12:29 22.67165 121.11604 4140 ft 117 kts 149°
2026-05-08 12:30 22.66486 121.11993 4569 ft 92 kts 150°
2026-05-08 12:30 22.65975 121.12268 4923 ft 89 kts 155°
2026-05-08 12:30 22.65328 121.12607 5009 ft 113 kts 154°
2026-05-08 12:30 22.64676 121.12955 5141 ft 95 kts 157°
2026-05-08 12:31 22.64130 121.13260 5233 ft 81 kts 151°
2026-05-08 12:31 22.63553 121.13590 5003 ft 98 kts 154°
2026-05-08 12:31 22.62940 121.13945 5074 ft 108 kts 150°
2026-05-08 12:31 22.62249 121.14448 5143 ft 128 kts 140°
2026-05-08 12:32 22.61436 121.14933 5278 ft 138 kts 153°
2026-05-08 12:32 22.60575 121.15402 5535 ft 136 kts 152°
2026-05-08 12:32 22.59780 121.15835 5608 ft 120 kts 151°
2026-05-08 12:32 22.59106 121.16229 5735 ft 101 kts 151°
2026-05-08 12:33 22.58524 121.16581 5831 ft 88 kts 155°
2026-05-08 12:33 22.57935 121.16921 5553 ft 106 kts 155°
2026-05-08 12:33 22.57300 121.17282 5650 ft 111 kts 151°
2026-05-08 12:33 22.56566 121.17698 5852 ft 121 kts 151°
2026-05-08 12:34 22.55810 121.18111 6148 ft 122 kts 152°
2026-05-08 12:34 22.55057 121.18528 6459 ft 121 kts 152°
2026-05-08 12:34 22.54277 121.18879 6713 ft 123 kts 175°
2026-05-08 12:34 22.53478 121.18636 7004 ft 121 kts 218°
2026-05-08 12:35 22.52761 121.18159 7289 ft 122 kts 209°
2026-05-08 12:35 22.52007 121.17748 7581 ft 121 kts 208°
2026-05-08 12:35 22.51252 121.17334 7873 ft 121 kts 210°
2026-05-08 12:35 22.50476 121.16882 7992 ft 137 kts 211°
2026-05-08 12:36 22.49580 121.16363 8005 ft 154 kts 210°
2026-05-08 12:36 22.48596 121.15802 8006 ft 166 kts 210°
2026-05-08 12:36 22.47570 121.15223 8007 ft 170 kts 210°
2026-05-08 12:36 22.46510 121.14625 8006 ft 173 kts 209°
2026-05-08 12:37 22.45438 121.14020 8005 ft 175 kts 209°
2026-05-08 12:37 22.44366 121.13414 8005 ft 173 kts 209°
2026-05-08 12:37 22.43304 121.12814 8002 ft 171 kts 209°
2026-05-08 12:37 22.42251 121.12218 8001 ft 170 kts 209°
2026-05-08 12:38 22.41203 121.11626 7998 ft 170 kts 209°
2026-05-08 12:38 22.40158 121.11036 7998 ft 169 kts 209°
2026-05-08 12:38 22.39118 121.10448 7999 ft 169 kts 210°
2026-05-08 12:38 22.38079 121.09861 7999 ft 168 kts 210°
2026-05-08 12:39 22.37043 121.09280 8000 ft 168 kts 211°
2026-05-08 12:39 22.36010 121.08692 7999 ft 167 kts 211°
2026-05-08 12:39 22.34980 121.08110 7999 ft 167 kts 210°
2026-05-08 12:39 22.33950 121.07528 7998 ft 167 kts 209°
2026-05-08 12:40 22.32917 121.06945 7996 ft 167 kts 209°
2026-05-08 12:40 22.31884 121.06363 7996 ft 168 kts 208°
2026-05-08 12:40 22.30848 121.05778 7996 ft 168 kts 208°
2026-05-08 12:40 22.29811 121.05192 7996 ft 168 kts 208°
2026-05-08 12:41 22.28774 121.04607 8002 ft 168 kts 208°
2026-05-08 12:41 22.27736 121.04021 8003 ft 169 kts 208°
2026-05-08 12:41 22.26695 121.03434 8003 ft 168 kts 209°
2026-05-08 12:41 22.25658 121.02850 8003 ft 168 kts 209°
2026-05-08 12:42 22.24622 121.02266 7999 ft 168 kts 209°
2026-05-08 12:42 22.23587 121.01682 7998 ft 168 kts 209°
2026-05-08 12:42 22.22647 121.00966 7993 ft 166 kts 233°
2026-05-08 12:42 22.22276 120.99827 7998 ft 165 kts 263°
2026-05-08 12:43 22.22164 120.98591 7999 ft 166 kts 265°
2026-05-08 12:43 22.22070 120.97353 8000 ft 166 kts 265°
2026-05-08 12:43 22.21977 120.96094 8000 ft 166 kts 265°
2026-05-08 12:43 22.21890 120.94867 7998 ft 166 kts 265°
2026-05-08 12:44 22.21807 120.93622 7996 ft 166 kts 265°
2026-05-08 12:44 22.21726 120.92381 7995 ft 166 kts 265°
2026-05-08 12:44 22.21646 120.91140 7995 ft 166 kts 265°
2026-05-08 12:44 22.21566 120.89901 7996 ft 165 kts 265°
2026-05-08 12:45 22.21489 120.88667 7998 ft 165 kts 265°
2026-05-08 12:45 22.21413 120.87434 7998 ft 165 kts 265°
2026-05-08 12:45 22.21337 120.86202 7999 ft 164 kts 265°
2026-05-08 12:45 22.21259 120.84971 7998 ft 164 kts 265°
2026-05-08 12:46 22.21181 120.83739 7999 ft 165 kts 266°
2026-05-08 12:46 22.21103 120.82501 8000 ft 166 kts 266°
2026-05-08 12:46 22.21027 120.81263 7996 ft 165 kts 266°
2026-05-08 12:46 22.20951 120.80027 8001 ft 165 kts 265°
2026-05-08 12:47 22.20876 120.78794 8001 ft 164 kts 266°
2026-05-08 12:47 22.20801 120.77568 8002 ft 164 kts 266°
2026-05-08 12:47 22.20724 120.76346 8000 ft 163 kts 265°
2026-05-08 12:47 22.20650 120.75124 8002 ft 163 kts 266°
2026-05-08 12:48 22.20576 120.73902 7997 ft 163 kts 265°
2026-05-08 12:48 22.20524 120.73095 7994 ft 163 kts 265°
2026-05-08 12:48 22.20423 120.71458 7993 ft 163 kts 266°
2026-05-08 12:48 22.20374 120.70649 7996 ft 163 kts 266°
2026-05-08 12:49 22.20301 120.69424 7997 ft 164 kts 266°
2026-05-08 12:49 22.20222 120.68176 7999 ft 165 kts 265°
2026-05-08 12:49 22.20145 120.66963 7999 ft 165 kts 266°
2026-05-08 12:49 22.20068 120.65729 8001 ft 164 kts 265°
2026-05-08 12:50 22.19992 120.64502 8000 ft 164 kts 265°
2026-05-08 12:50 22.20033 120.63266 7996 ft 165 kts 287°
2026-05-08 12:50 22.20694 120.62266 7990 ft 167 kts 316°
2026-05-08 12:50 22.21620 120.61503 7991 ft 168 kts 322°
2026-05-08 12:51 22.22570 120.60776 7989 ft 167 kts 322°
2026-05-08 12:51 22.24440 120.59307 7986 ft 167 kts 322°
2026-05-08 12:51 22.25380 120.58562 7988 ft 168 kts 322°
2026-05-08 12:52 22.26325 120.57825 7950 ft 169 kts 322°
2026-05-08 12:52 22.28266 120.56276 7513 ft 175 kts 322°
2026-05-08 12:52 22.29241 120.55499 7283 ft 174 kts 322°
2026-05-08 12:53 22.30219 120.54723 7057 ft 175 kts 322°
2026-05-08 12:53 22.31199 120.53942 6824 ft 175 kts 322°
2026-05-08 12:53 22.32179 120.53163 6591 ft 175 kts 323°
2026-05-08 12:53 22.33163 120.52381 6356 ft 176 kts 323°
2026-05-08 12:54 22.34149 120.51598 6117 ft 176 kts 323°
2026-05-08 12:54 22.35136 120.50819 5876 ft 175 kts 324°
2026-05-08 12:54 22.36109 120.50054 5634 ft 171 kts 324°
2026-05-08 12:54 22.37063 120.49299 5428 ft 168 kts 324°
2026-05-08 12:55 22.37997 120.48559 5220 ft 163 kts 326°
2026-05-08 12:55 22.38892 120.47823 5012 ft 165 kts 323°
2026-05-08 12:55 22.39841 120.47073 4781 ft 173 kts 327°
2026-05-08 12:55 22.40829 120.46314 4543 ft 174 kts 326°
2026-05-08 12:56 22.41795 120.45562 4316 ft 168 kts 326°
2026-05-08 12:56 22.42757 120.44908 4248 ft 162 kts 339°
2026-05-08 12:56 22.43848 120.44735 4135 ft 159 kts 12°
2026-05-08 12:56 22.44766 120.45329 4017 ft 155 kts 49°
2026-05-08 12:57 22.45435 120.46239 3897 ft 155 kts 53°
2026-05-08 12:57 22.46087 120.47176 3778 ft 156 kts 53°
2026-05-08 12:57 22.46744 120.48119 3651 ft 157 kts 53°
2026-05-08 12:57 22.47399 120.49064 3524 ft 158 kts 54°
2026-05-08 12:58 22.48067 120.50013 3408 ft 159 kts 53°
2026-05-08 12:58 22.48743 120.50967 3290 ft 160 kts 53°
2026-05-08 12:58 22.49531 120.51811 3181 ft 161 kts 35°
2026-05-08 12:58 22.50482 120.52455 3050 ft 162 kts 33°
2026-05-08 12:59 22.51441 120.53090 2929 ft 162 kts 32°
2026-05-08 12:59 22.52512 120.53479 2808 ft 164 kts 13°
2026-05-08 12:59 22.53623 120.53737 2705 ft 163 kts 13°
2026-05-08 12:59 22.54731 120.53988 2706 ft 163 kts 13°
2026-05-08 13:00 22.55859 120.54124 2699 ft 163 kts
2026-05-08 13:00 22.56919 120.53745 2692 ft 164 kts 321°
2026-05-08 13:00 22.57487 120.52699 2692 ft 164 kts 279°
2026-05-08 13:00 22.57346 120.51489 2667 ft 164 kts 256°
2026-05-08 13:01 22.57275 120.50250 2481 ft 166 kts 269°
2026-05-08 13:01 22.57287 120.49015 2268 ft 163 kts 270°
2026-05-08 13:01 22.57316 120.47806 2058 ft 159 kts 271°
2026-05-08 13:01 22.57357 120.46623 1855 ft 156 kts 271°
2026-05-08 13:02 22.57392 120.45457 1669 ft 154 kts 271°
2026-05-08 13:02 22.57424 120.44335 1487 ft 139 kts 271°
2026-05-08 13:02 22.57439 120.43372 1360 ft 115 kts 273°
2026-05-08 13:02 22.57453 120.42547 1207 ft 105 kts 274°
2026-05-08 13:03 22.57491 120.41786 1078 ft 98 kts 278°
2026-05-08 13:03 22.57532 120.41061 962 ft 95 kts 278°
2026-05-08 13:03 22.57552 120.40338 844 ft 96 kts 276°
2026-05-08 13:03 22.57559 120.39609 693 ft 97 kts 278°
2026-05-08 13:04 22.57567 120.38874 585 ft 95 kts 283°
2026-05-08 13:04 22.57601 120.38165 446 ft 95 kts 278°
2026-05-08 13:04 22.57632 120.37458 337 ft 98 kts 278°
2026-05-08 13:04 22.57653 120.36711 197 ft 97 kts 278°
2026-05-08 13:05 22.57677 120.35999 68 ft 94 kts 277°
2026-05-08 13:05 22.57695 120.35395 33 ft 63 kts 272°
2026-05-08 13:05 22.57699 120.35254 33 ft 0 kts 272°
2026-05-08 13:06 22.57702 120.35128 32 ft 48 kts 272°
2026-05-08 13:06 22.57719 120.34589 100 ft 84 kts 274°
2026-05-08 13:07 22.57728 120.33949 332 ft 91 kts 277°
2026-05-08 13:07 22.57756 120.33259 681 ft 92 kts 278°
2026-05-08 13:07 22.57768 120.32522 932 ft 101 kts 275°
2026-05-08 13:07 22.57778 120.31785 1231 ft 100 kts 275°
2026-05-08 13:08 22.57783 120.31041 1584 ft 98 kts 275°
2026-05-08 13:08 22.57818 120.30304 1873 ft 99 kts 277°
2026-05-08 13:08 22.57869 120.29556 2126 ft 100 kts 277°
2026-05-08 13:08 22.57911 120.28776 2321 ft 113 kts 265°
2026-05-08 13:09 22.57528 120.28021 2532 ft 117 kts 217°
2026-05-08 13:09 22.56776 120.27783 2822 ft 113 kts 172°
2026-05-08 13:09 22.56083 120.28142 3103 ft 112 kts 140°
2026-05-08 13:09 22.55486 120.28675 3386 ft 111 kts 140°
2026-05-08 13:10 22.54897 120.29205 3675 ft 109 kts 140°
2026-05-08 13:10 22.54309 120.29736 3941 ft 111 kts 139°
2026-05-08 13:10 22.53720 120.30265 4216 ft 111 kts 140°
2026-05-08 13:10 22.53127 120.30793 4501 ft 110 kts 140°
2026-05-08 13:11 22.52535 120.31322 4749 ft 112 kts 140°